sat.trackr.live / text

‹ back to catalog

HULIANWANG DIGUI-66

NORAD 65172 · 2025-174J

PAYLOAD ACTIVE UNKNOWN

§ Identity

Operator
Country
PRC
Launch date
2025-08-13
Launch site
WSC
Launch vehicle
Mass (kg)
RCS (m²)

External: N2YO · Heavens-Above · Gunter

§ Orbital elements

Epoch: 2026-09-21T20:53:28.594176Z

Period
108.73 min
Inclination
86.4945°
Eccentricity
0.0002206
Mean motion
13.24399828 rev/d
Perigee alt
1,166.3 km
Apogee alt
1,169.6 km
Semi-major
7,546.1 km
B*
1.3929e-5
RAAN
219.2294°
Arg perigee
74.5012°
Mean anomaly
285.6366°
Rev number
5,358

§ Raw data

HULIANWANG DIGUI-661 65172U 25174J   26264.87046984  .00000021  00000+0  13929-4 0  99962 65172  86.4945 219.2294 0002206  74.5012 285.6366 13.24399828 53583

JSON: /api/v1/satellites/65172 · /tle

For live sub-satellite position, see the globe view (requires WebGL).

§ Visibility from observer

Set your observer location to see the next 7 days of passes ≥ 10°. The values pass through the URL so the page stays shareable.

No JS? Fill the form by hand. The geolocation button needs JavaScript.